FW3157 Weather Reports


time (UTC)temp
F
wind
direction
speed
knots
gust
knots
rain 1hr
in
rain 24hr
in
rain mn
in
humidity
%
barometer
mb
20260502130659 61 232 2.6 6.1 0.00 0.00 0.06 44 1019.3
20260502130159 61 221 1.7 4.3 0.00 0.00 0.06 43 1019.3
20260502123658 60 267 3.5 7.0 0.00 0.00 0.06 45 1019.5
20260502123425 60 253 2.6 7.0 0.00 0.00 0.06 43 1019.6
20260502122657 61 204 3.5 7.0 0.00 0.00 0.06 43 1019.5
20260502122157 61 265 2.6 7.8 0.00 0.00 0.06 39 1019.6
20260502121916 62 260 2.6 7.0 0.00 0.00 0.06 42 1019.5
20260502121157 62 294 1.7 5.2 0.00 0.00 0.06 38 1019.7
20260502120922 62 269 1.7 5.2 0.00 0.00 0.06 38 1019.8
20260502120157 61 266 1.7 5.2 0.00 0.00 0.06 39 1019.8
20260502120145 61 219 0.9 5.2 0.00 0.00 0.06 39 1019.9
20260502115156 60 271 1.7 6.1 0.00 0.00 0.06 39 1020.0
20260502114651 60 296 2.6 6.1 0.00 0.00 0.06 39 1020.1
20260502114145 60 264 3.5 6.1 0.00 0.00 0.06 41 1020.1
20260502113639 60 319 4.3 8.7 0.00 0.00 0.06 41 1020.2
20260502113133 60 265 3.5 8.7 0.00 0.00 0.06 41 1020.3
20260502112633 60 310 3.5 7.0 0.00 0.00 0.06 41 1020.3
20260502112127 59 251 3.5 7.0 0.00 0.00 0.06 44 1020.4
20260502111855 59 306 3.5 2.6 0.00 0.00 0.06 44 1020.5
20260502101449 57 275 4.3 7.8 0.00 0.09 0.06 48 1021.1
20260502100949 57 260 4.3 8.7 0.00 0.09 0.06 49 1021.2
20260502100711 57 266 6.1 8.7 0.00 0.09 0.06 48 1021.2
20260502091358 57 256 3.5 7.0 0.00 0.09 0.06 49 1021.5
20260502090859 57 258 5.2 8.7 0.00 0.09 0.06 51 1021.5
20260502090609 57 278 5.2 10.4 0.00 0.09 0.06 50 1021.6
20260502070838 54 314 4.3 8.7 0.00 0.09 0.06 69 1022.5
20260502070339 54 290 3.5 8.7 0.00 0.09 0.06 68 1022.5
20260502065839 53 312 3.5 7.0 0.00 0.09 0.06 70 1022.5
20260502065339 53 282 3.5 7.8 0.00 0.09 0.06 70 1022.5
20260502064838 53 307 3.5 7.8 0.00 0.09 0.06 74 1022.5
20260502064339 53 288 2.6 6.1 0.00 0.09 0.06 75 1022.5
20260502063837 53 257 2.6 5.2 0.00 0.09 0.06 77 1022.6
20260502063556 53 296 2.6 6.1 0.00 0.09 0.06 78 1022.6
20260502062837 52 293 2.6 6.1 0.00 0.09 0.06 79 1022.6
20260502062337 52 321 3.5 7.0 0.00 0.09 0.06 80 1022.6
20260502061837 52 275 3.5 7.0 0.00 0.09 0.06 80 1022.6
20260502061601 52 291 3.5 6.1 0.00 0.09 0.06 80 1022.6
20260502060836 51 297 3.5 6.1 0.00 0.09 0.06 80 1022.7
20260502060336 51 311 3.5 6.1 0.00 0.09 0.06 80 1022.7
20260502055834 52 280 3.5 6.1 0.00 0.09 0.06 79 1022.6
20260502055334 51 321 2.6 6.1 0.00 0.09 0.06 78 1022.6
20260502054834 51 306 2.6 6.1 0.00 0.09 0.06 78 1022.7
20260502054335 51 304 2.6 6.1 0.00 0.09 0.06 78 1022.7
20260502053835 51 306 2.6 5.2 0.00 0.09 0.06 79 1022.7
20260502053334 51 309 2.6 5.2 0.00 0.09 0.06 80 1022.8
20260502052832 51 313 3.5 6.1 0.00 0.09 0.06 79 1022.8
20260502052332 51 304 3.5 6.1 0.00 0.09 0.06 79 1022.7
20260502051833 51 289 3.5 6.1 0.00 0.09 0.06 80 1022.7
20260502051332 51 297 3.5 6.1 0.00 0.09 0.06 80 1022.7
20260502050826 51 309 2.6 5.2 0.00 0.09 0.06 80 1022.7
20260502050546 51 281 2.6 5.2 0.00 0.09 0.06 80 1022.6
20260502045814 51 280 1.7 5.2 0.00 0.09 0.06 80 1022.6
20260502045308 50 310 2.6 4.3 0.00 0.09 0.06 80 1022.6
20260502044802 51 310 1.7 4.3 0.00 0.09 0.06 80 1022.5
20260502044255 51 283 1.7 3.5 0.00 0.09 0.06 77 1022.5
20260502044017 50 267 1.7 4.3 0.00 0.09 0.06 77 1022.5
20260502043244 50 312 0.9 4.3 0.00 0.09 0.06 77 1022.5
20260502042738 50 316 0.9 2.6 0.00 0.09 0.06 77 1022.5
20260502042454 50 316 1.7 4.3 0.00 0.09 0.06 77 1022.4
20260502041726 50 27 1.7 4.3 0.00 0.09 0.06 77 1022.3
20260502041219 50 13 1.7 5.2 0.00 0.09 0.06 78 1022.3
20260502040721 50 312 2.6 5.2 0.00 0.09 0.06 79 1022.3
20260502040207 49 46 1.7 6.1 0.00 0.09 0.06 81 1022.3
20260502035701 50 315 2.6 6.1 0.00 0.09 0.06 81 1022.2
20260502035155 50 335 3.5 7.0 0.00 0.09 0.06 81 1022.3
20260502034916 49 303 2.6 7.0 0.00 0.09 0.06 78 1022.2
20260502034143 49 304 1.7 4.3 0.00 0.09 0.06 75 1022.2
20260502033638 49 315 1.7 4.3 0.00 0.09 0.06 75 1022.1
20260502033131 49 96 0.9 2.6 0.00 0.09 0.06 76 1022.1
20260502032626 49 96 0.9 2.6 0.00 0.09 0.06 76 1022.0
20260502032119 49 96 0.9 1.7 0.00 0.09 0.06 76 1022.0
20260502031614 49 96 0.9 1.7 0.00 0.09 0.06 77 1022.0
20260502031108 49 96 0.9 1.7 0.00 0.09 0.06 77 1022.0
20260502030601 49 96 0.9 2.6 0.00 0.09 0.06 78 1022.0
20260502030055 49 96 0.9 2.6 0.00 0.09 0.06 78 1022.1
20260502025548 49 96 0.9 2.6 0.00 0.09 0.06 78 1022.1
20260502025042 49 98 0.9 2.6 0.00 0.09 0.06 79 1022.0
20260502024536 49 79 0.9 2.6 0.00 0.09 0.06 79 1022.0
20260502024029 49 51 0.9 1.7 0.00 0.09 0.06 79 1022.1
20260502023524 49 52 0.0 1.7 0.00 0.09 0.06 79 1022.1
20260502023018 49 52 0.0 1.7 0.00 0.09 0.06 80 1022.1
20260502023009 49 52 0.9 1.7 0.00 0.09 0.06 80 1022.2
20260502022235 50 66 0.9 3.5 0.00 0.09 0.06 79 1022.2
20260502021501 50 51 1.7 3.5 0.00 0.09 0.06 77 1022.2
20260502020954 50 34 1.7 3.5 0.00 0.09 0.06 74 1022.2
20260502020448 50 25 1.7 4.3 0.00 0.09 0.06 74 1022.2
20260502015942 50 36 1.7 4.3 0.00 0.09 0.06 76 1022.3
20260502015436 50 49 1.7 3.5 0.00 0.09 0.06 78 1022.3
20260502014930 50 298 1.7 3.5 0.00 0.09 0.06 78 1022.3
20260502014424 50 301 2.6 5.2 0.00 0.09 0.06 77 1022.4
20260502013917 50 305 2.6 5.2 0.00 0.09 0.06 77 1022.6
20260502013412 50 316 2.6 6.1 0.00 0.09 0.06 77 1022.6
20260502012905 50 299 1.7 6.1 0.00 0.09 0.06 79 1022.7
20260502012359 50 298 1.7 3.5 0.00 0.09 0.06 80 1022.7
20260502011853 50 304 1.7 3.5 0.00 0.09 0.06 80 1022.8
20260502011608 49 321 0.9 2.6 0.00 0.09 0.06 80 1022.7
20260502010841 49 321 0.9 1.7 0.00 0.09 0.06 80 1022.8
20260502010557 49 321 0.9 2.6 0.00 0.09 0.06 80 1022.7
20260502005829 49 321 1.7 4.3 0.00 0.09 0.06 79 1022.7
20260502005329 49 321 1.7 4.3 0.00 0.09 0.06 79 1022.7
20260502004830 49 328 1.7 3.5 0.00 0.09 0.06 79 1022.7
20260502004330 49 340 1.7 4.3 0.00 0.09 0.06 78 1022.6
20260502004050 49 333 2.6 4.3 0.00 0.09 0.06 78 1022.6
20260502003330 49 310 2.6 4.3 0.00 0.09 0.06 79 1022.7
20260502002830 49 31 2.6 4.3 0.00 0.09 0.06 80 1022.7
20260502002329 50 297 2.6 6.1 0.00 0.09 0.06 81 1022.7
20260502001830 50 12 2.6 6.1 0.00 0.09 0.06 81 1022.8
20260502001329 50 304 2.6 6.1 0.00 0.09 0.06 80 1022.8
20260502001322 50 25 2.6 5.2 0.00 0.09 0.06 81 1022.8
20260502000332 49 18 2.6 5.2 0.00 0.09 0.06 81 1022.9
20260502000100 49 30 2.6 5.2 0.00 0.09 0.06 82 1022.9
20260501235553 49 328 2.6 5.2 0.00 0.09 0.06 82 1022.9
20260501234830 49 13 3.5 6.1 0.00 0.09 0.06 82 1023.0
20260501234549 49 30 3.5 6.1 0.00 0.09 0.06 82 1023.0
20260501233826 49 30 2.6 5.2 0.00 0.09 0.06 81 1023.1
20260501233326 49 37 2.6 4.3 0.00 0.09 0.06 81 1023.1
20260501232820 49 19 2.6 4.3 0.00 0.09 0.06 80 1023.1
20260501232314 49 56 2.6 5.2 0.00 0.09 0.06 80 1023.2
20260501231807 49 13 2.6 5.2 0.00 0.09 0.06 79 1023.2
20260501231308 49 16 2.6 5.2 0.00 0.09 0.06 79 1023.2
20260501230808 49 355 2.6 4.3 0.01 0.09 0.06 79 1023.2
20260501230536 50 328 2.6 5.2 0.01 0.09 0.06 78 1023.3
20260501225808 50 13 2.6 5.2 0.01 0.09 0.06 77 1023.3
20260501225528 49 34 1.7 4.3 0.02 0.09 0.06 77 1023.4
20260501224806 49 350 1.7 4.3 0.03 0.09 0.06 77 1023.5
20260501224306 49 309 1.7 4.3 0.04 0.09 0.06 76 1023.4
20260501224029 49 323 1.7 4.3 0.05 0.09 0.06 77 1023.5
20260501223306 49 322 1.7 3.5 0.06 0.09 0.06 77 1023.5
20260501222804 49 295 1.7 3.5 0.06 0.09 0.06 76 1023.6
20260501222305 49 290 1.7 3.5 0.06 0.09 0.06 77 1023.7
20260501221803 49 297 1.7 4.3 0.06 0.09 0.06 77 1023.7
20260501221302 49 285 2.6 5.2 0.06 0.09 0.06 75 1023.8
20260501220800 49 264 2.6 5.2 0.06 0.08 0.06 76 1023.8
20260501220259 49 286 1.7 5.2 0.06 0.08 0.06 75 1023.9
20260501215755 49 336 4.3 12.2 0.06 0.08 0.06 77 1024.0
20260501215256 49 49 6.1 13.9 0.04 0.06 0.04 77 1024.2
20260501214756 51 34 4.3 13.9 0.03 0.06 0.03 79 1024.1
20260501214256 51 83 1.7 4.3 0.02 0.05 0.02 80 1023.9
20260501213756 51 69 1.7 4.3 0.02 0.04 0.02 79 1023.7
20260501213256 51 352 1.7 4.3 0.01 0.03 0.01 82 1023.6
20260501212756 51 75 0.9 3.5 0.01 0.03 0.01 82 1023.6
20260501212735 52 80 1.7 3.5 0.01 0.03 0.01 82 1023.7
20260501211756 52 46 2.6 5.2 0.00 0.02 0.00 81 1023.7
20260501211252 52 87 2.6 5.2 0.00 0.02 0.00 82 1023.7
20260501210751 52 69 1.7 4.3 0.00 0.02 0.00 82 1023.7
20260501210251 52 70 0.9 3.5 0.00 0.02 0.00 81 1023.6
20260501205751 52 91 0.9 2.6 0.00 0.02 0.02 81 1023.5
20260501205252 52 90 0.9 2.6 0.00 0.02 0.02 82 1023.6
20260501204752 52 89 0.9 2.6 0.00 0.02 0.02 81 1023.5
20260501204250 52 89 0.9 2.6 0.00 0.02 0.02 81 1023.5
20260501203747 52 89 0.9 2.6 0.00 0.02 0.02 80 1023.5
20260501203247 52 89 0.9 2.6 0.00 0.02 0.02 80 1023.5
20260501202746 52 89 0.9 2.6 0.00 0.02 0.02 80 1023.5
20260501202244 52 90 0.9 2.6 0.00 0.02 0.02 80 1023.5
20260501201742 52 96 1.7 2.6 0.00 0.02 0.02 80 1023.5
20260501201241 52 90 0.9 2.6 0.00 0.02 0.02 80 1023.4
20260501200740 52 103 0.9 2.6 0.00 0.02 0.02 81 1023.5
20260501200238 52 103 1.7 3.5 0.00 0.02 0.02 81 1023.5
20260501195738 52 101 0.9 3.5 0.00 0.02 0.02 81 1023.5
20260501195238 52 85 0.9 3.5 0.00 0.02 0.02 81 1023.5
20260501194738 52 54 0.0 1.7 0.00 0.02 0.02 81 1023.5
20260501194238 52 54 0.9 1.7 0.00 0.02 0.02 80 1023.5
20260501193737 52 54 0.0 1.7 0.00 0.02 0.02 80 1023.5
20260501193457 52 54 0.0 0.0 0.00 0.02 0.02 80 1023.4
20260501192733 52 54 0.0 0.0 0.00 0.02 0.02 80 1023.4
20260501192232 52 54 0.0 0.0 0.00 0.02 0.02 80 1023.4
20260501191731 52 54 0.0 0.9 0.00 0.02 0.02 80 1023.3
20260501191451 52 54 0.0 0.9 0.00 0.02 0.02 80 1023.3
20260501190731 52 54 0.9 1.7 0.00 0.02 0.02 80 1023.2
20260501190231 52 54 0.9 1.7 0.00 0.02 0.02 80 1023.2
20260501185732 52 54 1.7 3.5 0.00 0.02 0.02 81 1023.1
20260501185231 52 54 1.7 3.5 0.00 0.02 0.02 81 1023.1
20260501184955 52 69 0.9 3.5 0.00 0.02 0.02 80 1023.0
20260501184232 52 95 0.9 1.7 0.00 0.02 0.02 80 1022.9
20260501183730 52 95 0.9 2.6 0.00 0.02 0.02 80 1022.8
20260501183229 52 95 1.7 2.6 0.00 0.02 0.02 80 1022.8
20260501182729 52 105 0.9 2.6 0.00 0.02 0.02 81 1022.7
20260501182229 52 105 0.9 3.5 0.00 0.02 0.02 80 1022.7
20260501181529 52 90 1.7 0.0 0.00 0.02 0.02 80 1022.6
20260501180431 52 65 0.9 3.5 0.00 0.02 0.02 79 1022.5
20260501175726 52 104 0.9 3.5 0.00 0.02 0.02 79 1022.4
20260501175226 52 106 0.0 2.6 0.00 0.02 0.02 79 1022.4
20260501174726 52 192 0.9 4.3 0.00 0.02 0.02 80 1022.3
20260501174447 52 127 0.9 4.3 0.00 0.02 0.02 80 1022.4
20260501173722 52 252 1.7 5.2 0.00 0.02 0.02 80 1022.3
20260501173222 52 105 1.7 5.2 0.00 0.02 0.02 79 1022.3
20260501172721 52 91 0.9 4.3 0.00 0.02 0.02 78 1022.3
20260501172222 52 116 0.9 3.5 0.00 0.02 0.02 79 1022.2
20260501171946 52 161 0.9 2.6 0.00 0.02 0.02 79 1022.2
20260501171219 52 113 0.9 2.6 0.00 0.02 0.02 80 1022.1
20260501170720 52 113 0.9 1.7 0.00 0.02 0.02 81 1022.1
20260501170218 52 113 0.9 1.7 0.00 0.02 0.02 82 1022.1
20260501165946 52 113 0.9 1.7 0.00 0.02 0.02 82 1022.1
20260501165436 52 113 1.7 2.6 0.00 0.02 0.02 82 1022.1
20260501164715 52 113 0.9 2.6 0.00 0.03 0.02 83 1022.1
20260501164209 52 113 0.0 1.7 0.00 0.03 0.02 83 1022.1
20260501163702 52 113 0.0 1.7 0.00 0.03 0.02 83 1022.2
20260501163200 52 113 0.9 1.7 0.00 0.03 0.02 83 1022.2
20260501162659 52 113 0.0 0.9 0.00 0.04 0.02 84 1022.1
20260501162159 52 113 0.9 1.7 0.00 0.04 0.02 83 1022.1
20260501161658 52 113 0.9 2.6 0.00 0.04 0.02 83 1022.0
20260501161157 52 113 0.9 2.6 0.00 0.05 0.02 82 1022.0
20260501160658 52 113 0.9 3.5 0.00 0.05 0.02 82 1021.9
20260501160158 52 113 1.7 3.5 0.00 0.06 0.02 82 1021.9
20260501155926 52 100 1.7 3.5 0.01 0.06 0.02 82 1021.9
20260501155155 52 100 0.9 3.5 0.01 0.06 0.02 82 1021.9
20260501154653 52 100 0.9 3.5 0.01 0.06 0.02 83 1021.9
20260501154153 52 247 1.7 4.3 0.01 0.06 0.02 83 1021.9
20260501153654 52 160 1.7 4.3 0.01 0.07 0.02 83 1021.9
20260501153154 52 132 1.7 4.3 0.01 0.07 0.02 84 1021.9
20260501152653 52 233 0.9 4.3 0.01 0.08 0.02 83 1021.9
20260501152153 52 177 0.9 4.3 0.01 0.08 0.02 83 1022.0
20260501151653 52 70 0.9 4.3 0.01 0.08 0.02 82 1022.0
20260501151154 52 186 1.7 6.1 0.01 0.08 0.02 82 1022.0
20260501150652 52 248 1.7 7.0 0.02 0.08 0.02 81 1022.1
20260501150147 52 144 0.9 7.0 0.01 0.08 0.02 81 1022.1
20260501145641 52 127 1.7 5.2 0.01 0.08 0.02 82 1022.1
20260501145357 52 182 1.7 5.2 0.02 0.08 0.02 81 1022.1
20260501144629 52 141 2.6 6.1 0.02 0.08 0.02 82 1022.1
20260501144123 52 129 1.7 6.1 0.02 0.09 0.02 80 1022.1
20260501143617 52 135 2.6 7.0 0.02 0.09 0.02 81 1022.1
20260501143111 52 162 2.6 7.0 0.02 0.09 0.02 80 1022.0
20260501142821 52 134 2.6 6.1 0.02 0.09 0.02 80 1021.9